User: anonymous
Location: Oshawa
(43.9000°N, 78.8670°W)
Time: 14:34:51
(UTC-04:00)
Language:

PAYLOAD A - Orbit

View from above orbital plane
View from above orbital plane
View from above satellite
View from above satellite

Ground track
Ground track

The orbit data is extracted from the following two-line orbital elements,

1 27840U 03031A   14107.42349267  .00000082  00000-0  38810-4 0  5178
2 27840 098.2416 138.3873 0098258 005.9781 107.7411 14.38694052566974
Epoch (UTC): 17 April 2014 10:09:49
Eccentricity: 0.0098258
inclination: 98.2416°
perigee height: 692 km
apogee height: 833 km
right ascension of ascending node: 138.3873°
argument of perigee: 5.9781°
revolutions per day: 14.38694052
mean anomaly at epoch: 107.7411°
orbit number at epoch: 56697

The dashed part of the orbit path shows where the satellite is in the earth's shadow,  

DLR